Location: Domont
(49.0278°N, 2.3264°E)
Time: 11:42:51
(UTC+00:00)

DX 1 - Pass Details

Date: 01 July 2022
Orbit: 617 x 630 km, 98.4° (Epoch: 13 August)

Event Time Altitude Azimuth Distance (km) Brightness Sun altitude
Rises 22:35:01 0° 1° (N) 2,934 ? -15.8°
Reaches altitude 10° 22:37:50 10° 342° (NNW) 2,020 ? -15.9°
Maximum altitude 22:40:41 17° 301° (WNW) 1,584 ? -16.0°
Drops below altitude 10° 22:43:32 10° 260° (W) 2,007 ? -16.2°
Sets 22:46:20 0° 241° (WSW) 2,907 ? -16.3°
